Home   Weather   Milton Keynes   Past weeks

Flag for United Kingdom Past Weather in Milton Keynes, England, United Kingdom — Yesterday and Last 2 Weeks

Now
41 °F

Partly sunny.


Feels Like: 41 °F
Forecast: N/A
Wind: 2 mph from North

Location: Cranfield

Current Time: Jan 18, 2017 at 4:22:42 pm

Latest Report: Jan 18, 2017 at 3:50 pm


Visibility: N/A

Pressure: 30.63 "Hg

Humidity: 76%

Dew Point: 34 °F

Location of Milton KeynesLocation

Past Weather in Milton Keynes — Graph

°F

Milton Keynes Temperature Yesterday

Maximum temperature yesterday: 43 °F (at 2:50 pm)
Minimum temperature yesterday: 34 °F (at 7:50 am)
Average temperature yesterday: 39 °F

High & Low Weather Summary for the Past Weeks

 TemperatureHumidityPressure
High52 °F (Jan 8, 12:50 pm)100% (Jan 5, 8:20 am)30.66 "Hg (Jan 5, 8:20 am)
Low25 °F (Jan 5, 8:20 am)57% (Jan 11, 3:20 pm)29.39 "Hg (Jan 12, 3:50 pm)
Average42 °F86%30.19 "Hg
* Reported Jan 3 3:20 pm — Jan 18 3:20 pm, Milton Keynes, Weather by CustomWeather, © 2017

Note: Actual official high and low records may vary slightly from our data, if they occured in-between our weather recording intervals... More about our weather records

Advertising

Milton Keynes Weather History for the Previous 24 Hours

Scroll right to see more
 ConditionsComfort  
Time TempWeatherWind HumidityBarometerVisibility
3:20 pm
Wed, Jan 18
41 °FPartly sunny.2 mph76%30.63 "HgN/A
2:50 pm43 °FPartly sunny.3 mph71%30.63 "HgN/A
2:20 pm43 °FScattered clouds.5 mph71%30.63 "HgN/A
1:50 pm43 °FPassing clouds.5 mph66%30.63 "HgN/A
1:20 pm43 °FPassing clouds.6 mph71%30.63 "HgN/A
12:50 pm41 °FPassing clouds.5 mph70%30.63 "HgN/A
12:20 pm41 °FSunny.6 mph70%30.66 "Hg10 mi
11:50 am39 °FSunny.6 mph75%30.66 "Hg10 mi
11:20 am37 °FSunny.8 mph75%30.66 "Hg10 mi
10:50 am37 °FSunny.7 mph75%30.66 "Hg10 mi
10:20 am34 °FSunny.8 mph81%30.66 "Hg10 mi
9:50 am34 °FSunny.7 mph81%30.66 "Hg10 mi
8:50 am28 °FSunny.6 mph86%30.66 "Hg10 mi
8:20 am28 °FSunny.6 mph86%30.66 "Hg10 mi
5:20 pm
Tue, Jan 17
37 °FClear.3 mph75%30.60 "Hg10 mi
4:50 pm39 °FClear.6 mph70%30.57 "Hg10 mi
4:20 pm39 °FClear.6 mph70%30.57 "Hg10 mi
Weather by CustomWeather, © 2017

See weather overviewHow to use our weather pages